World > North America > United States > Ohio > Moxahala  

Moxahala, OH Hourly Weather Updates

Feedback E-mail the Weather

Quick Clicks

Moxahala, OH Weather Maps

°F °C°F °C
Moxahala Weather Map
UTC Time: 7/21/2024, 07:58
Your Time:

Moxahala, OH Regional Weather

Expires:202407210800;;029153
ASUS41 KCLE 210712
RWRCLE
OHIO REGIONAL WEATHER ROUNDUP
NATIONAL WEATHER SERVICE WILMINGTON, OH
300 AM EDT SUN JUL 21 2024

NOTE: "FAIR" INDICATES FEW OR NO CLOUDS BELOW 12,000 FEET WITH NO
SIGNIFICANT WEATHER AND/OR OBSTRUCTIONS TO VISIBILITY.


OHZ036-037-039>041-045>050-054>059-063>069-073>076-082>088-210800-
  CENTRAL AND SOUTHEAST OHIO
  
CITY           SKY/WX    TMP DP  RH WIND       PRES   REMARKS
COLUMBUS       FAIR      66  56  70 E3        30.10R                  
OSU AIRPORT    FAIR      63  56  78 W3        30.11R                  
BOLTON FIELD   MOCLDY    61  57  86 SW3       30.12R                  
RICKENBACK AFB FAIR      66  56  70 N3        30.10R                  
NEWARK         FAIR      59  56  89 CALM      30.10S                  
MARION         FAIR      62  57  83 CALM      30.11S                  
LANCASTER      FAIR      56  32  40 CALM      30.11S                  
ZANESVILLE     FAIR      62  58  86 CALM      30.10S                  
NEW PHILLY     FAIR      59  56  89 CALM      30.11S                  
$$
  

SKY/WX - Weather  TMP - Temperature  DP - Dew Point  RH - Humidity
WIND - Wind Direction/Speed PRES - Barometric Pressure VSB - Visibility
WCI - Wind Chill Index E13G22 Wind - East Wind 13 mph/Gusts of 22 mph

Trending Headlines

Trending Entertainment Headlines

Moxahala Radar Loop

Use the map search tool if you want to place a location marker on the radar map...

Moxahala Quick Facts

National Two Day Weather Forecast


E-mail the Moxahala Weather Forecast

Voice your opinion or tell us about page issues...